Tracking 28799 objects as of 18-Apr-2024
HD Live streaming from Space Station
objects crossing your sky now

ARIANE 5 R/B

Track ARIANE 5 R/B now!


NORAD ID: 25990
Int'l Code: 1999-066B
Perigee: 10,074.1 km
Apogee: 102,580.8 km
Inclination: 69.3 °
Period: 2,604.0 minutes
Semi major axis: 62698 km
RCS: 6.3096 m2 (large)
Launch date: December 10, 1999
Source: France (FR)
Launch site: FRENCH GUIANA (FRGUI)

Note: This is a ROCKET BODY
Your satellite tracking list
Your tracking list is empty




NASA's NSSDC Master Catalog

Two Line Element Set (TLE):
1 25990U 99066B   24107.09518097 -.00000166  00000-0  00000+0 0  9991
2 25990  69.2734 319.9261 7377110 109.5010 337.8022  0.55299057 36973
Source of the keplerian elements: AFSPC